CX5ACA-13 Weather Reports


time (UTC)temp
C
wind
direction
speed
KPH
gust
KPH
rain 1hr
cm
rain 24hr
cm
rain mn
cm
humidity
%
barometer
mb
20260506015922 19 153 0.0 0.0 0.00 0.00 0.00 92 1015.1
20260506015420 19 156 0.0 0.0 0.00 0.00 0.00 92 1015.0
20260506014916 19 166 0.0 0.0 0.00 0.00 0.00 91 1015.1
20260506014413 20 154 0.0 0.0 0.00 0.00 0.00 91 1015.0
20260506013910 20 201 3.2 3.2 0.00 0.00 0.00 92 1014.9
20260506013408 20 146 0.0 0.0 0.00 0.00 0.00 91 1014.5
20260506012903 20 135 0.0 0.0 0.00 0.00 0.00 91 1014.5
20260506012400 20 132 0.0 0.0 0.00 0.00 0.00 91 1014.5
20260506011857 20 123 0.0 0.0 0.00 0.00 0.00 91 1014.3
20260506011355 20 132 0.0 0.0 0.00 0.00 0.00 91 1014.0
20260506010852 20 130 0.0 0.0 0.00 0.00 0.00 90 1014.1
20260506010350 20 118 0.0 0.0 0.00 0.00 0.00 90 1014.1
20260506005846 20 106 1.6 1.6 0.00 0.00 0.00 90 1014.2
20260506005343 20 140 0.0 0.0 0.00 0.00 0.00 89 1014.2
20260506004839 20 107 0.0 0.0 0.00 0.00 0.00 89 1014.3
20260506004337 20 88 0.0 1.6 0.00 0.00 0.00 89 1014.3
20260506003833 20 113 0.0 1.6 0.00 0.00 0.00 89 1014.4
20260506003329 20 271 1.6 1.6 0.00 0.00 0.00 88 1014.5
20260506002826 20 121 0.0 0.0 0.00 0.00 0.00 88 1014.6
20260506002322 20 57 3.2 3.2 0.00 0.00 0.00 88 1014.7
20260506001818 20 100 0.0 0.0 0.00 0.00 0.00 87 1014.7
20260506001315 20 127 0.0 0.0 0.00 0.00 0.00 87 1014.7
20260506000812 20 129 0.0 0.0 0.00 0.00 0.00 87 1014.6
20260506000310 20 133 0.0 0.0 0.00 0.00 0.00 87 1015.0
20260505235806 20 120 0.0 0.0 0.00 0.00 0.00 87 1014.6
20260505235305 20 122 0.0 0.0 0.00 0.00 0.00 87 1014.5
20260505234801 20 138 0.0 0.0 0.00 0.00 0.00 87 1014.7
20260505234259 20 142 0.0 0.0 0.00 0.00 0.00 87 1014.5
20260505233755 20 143 0.0 0.0 0.00 0.00 0.00 86 1014.6
20260505233253 20 140 0.0 0.0 0.00 0.00 0.00 86 1014.5
20260505232750 20 131 0.0 0.0 0.00 0.00 0.00 85 1014.7
20260505232247 20 126 0.0 0.0 0.00 0.00 0.00 85 1014.8
20260505231743 20 128 0.0 0.0 0.00 0.00 0.00 85 1014.9
20260505231243 20 154 0.0 0.0 0.00 0.00 0.00 85 1014.6
20260505230741 20 143 0.0 0.0 0.00 0.00 0.00 85 1014.6
20260505230237 20 138 0.0 0.0 0.00 0.00 0.00 84 1014.6
20260505225734 20 60 1.6 3.2 0.00 0.00 0.00 84 1014.6
20260505225231 20 132 0.0 0.0 0.00 0.00 0.00 84 1014.8
20260505224726 20 145 0.0 0.0 0.00 0.00 0.00 84 1014.9
20260505224224 20 150 0.0 0.0 0.00 0.00 0.00 84 1014.7
20260505223721 20 133 0.0 0.0 0.00 0.00 0.00 84 1014.8
20260505223217 20 125 0.0 0.0 0.00 0.00 0.00 83 1014.8
20260505222713 20 134 0.0 0.0 0.00 0.00 0.00 83 1014.9
20260505222209 20 112 0.0 0.0 0.00 0.00 0.00 83 1014.8
20260505221707 20 122 0.0 0.0 0.00 0.00 0.00 83 1014.7
20260505221203 20 102 1.6 1.6 0.00 0.00 0.00 84 1014.9
20260505220700 20 103 0.0 0.0 0.00 0.00 0.00 84 1014.8
20260505220158 20 118 0.0 0.0 0.00 0.00 0.00 84 1014.7
20260505215655 20 131 0.0 0.0 0.00 0.00 0.00 84 1014.6
20260505215154 20 137 0.0 0.0 0.00 0.00 0.00 84 1014.4
20260505214651 20 135 0.0 0.0 0.00 0.00 0.00 83 1014.6
20260505214148 20 141 0.0 0.0 0.00 0.00 0.00 83 1014.5
20260505213646 20 145 0.0 0.0 0.00 0.00 0.00 83 1014.3
20260505213143 20 140 0.0 0.0 0.00 0.00 0.00 83 1014.2
20260505212638 21 126 0.0 0.0 0.00 0.00 0.00 83 1014.3
20260505212136 21 124 0.0 0.0 0.00 0.00 0.00 83 1014.5
20260505211633 21 130 0.0 0.0 0.00 0.00 0.00 83 1014.3
20260505211130 21 112 0.0 0.0 0.00 0.00 0.00 83 1014.5
20260505210627 21 145 0.0 0.0 0.00 0.00 0.00 84 1014.5
20260505210123 21 145 0.0 0.0 0.00 0.00 0.00 84 1014.5
20260505205621 21 149 0.0 0.0 0.00 0.00 0.00 85 1014.6
20260505205119 21 151 0.0 0.0 0.00 0.00 0.00 85 1014.6
20260505204616 21 152 0.0 0.0 0.00 0.00 0.00 85 1014.6
20260505204113 21 152 0.0 0.0 0.00 0.00 0.00 85 1014.5
20260505203609 21 152 0.0 0.0 0.00 0.00 0.00 85 1014.5
20260505203107 21 152 0.0 0.0 0.00 0.00 0.00 84 1014.4
20260505202602 21 152 0.0 0.0 0.00 0.00 0.00 84 1014.3
20260505202059 21 152 0.0 0.0 0.00 0.00 0.00 84 1014.4
20260505201555 21 154 0.0 0.0 0.00 0.00 0.00 84 1014.5
20260505201053 21 155 0.0 0.0 0.00 0.00 0.00 84 1014.6
20260505200551 21 163 0.0 0.0 0.00 0.00 0.00 84 1014.6
20260505200048 21 154 0.0 0.0 0.00 0.00 0.00 84 1014.6
20260505195544 21 155 0.0 0.0 0.00 0.00 0.00 83 1014.7
20260505195042 21 156 0.0 0.0 0.00 0.00 0.00 83 1014.7
20260505194538 21 197 0.0 0.0 0.00 0.00 0.00 82 1014.7
20260505194034 21 163 0.0 0.0 0.00 0.00 0.00 80 1014.5
20260505193531 22 164 0.0 0.0 0.00 0.00 0.00 80 1014.7
20260505193028 21 156 0.0 0.0 0.00 0.00 0.00 82 1014.6
20260505192527 21 149 0.0 0.0 0.00 0.00 0.00 82 1014.4
20260505192024 21 167 0.0 0.0 0.00 0.00 0.00 82 1014.3
20260505191522 21 173 1.6 1.6 0.00 0.00 0.00 83 1014.5
20260505191020 21 156 1.6 1.6 0.00 0.00 0.00 82 1014.4
20260505190514 21 157 1.6 1.6 0.00 0.00 0.00 81 1014.6
20260505190011 21 161 0.0 0.0 0.00 0.00 0.00 81 1014.4
20260505185508 21 152 0.0 0.0 0.00 0.00 0.00 81 1014.7
20260505185004 21 162 0.0 0.0 0.00 0.00 0.00 81 1014.6
20260505184501 21 185 0.0 1.6 0.00 0.00 0.00 80 1014.5
20260505183957 22 172 1.6 3.2 0.00 0.00 0.00 79 1014.5
20260505183454 22 152 0.0 0.0 0.00 0.00 0.00 78 1014.3
20260505182951 22 188 3.2 3.2 0.00 0.00 0.00 78 1014.5
20260505182448 22 185 1.6 3.2 0.00 0.00 0.00 77 1014.3
20260505181944 23 184 0.0 0.0 0.00 0.00 0.00 76 1014.5
20260505181442 22 140 0.0 0.0 0.00 0.00 0.00 76 1014.5
20260505180938 22 140 0.0 0.0 0.00 0.00 0.00 77 1014.4
20260505180434 21 164 0.0 0.0 0.00 0.00 0.00 78 1014.4
20260505175931 22 154 0.0 0.0 0.00 0.00 0.00 78 1014.5
20260505175428 21 144 0.0 0.0 0.00 0.00 0.00 79 1014.2
20260505174924 22 168 3.2 3.2 0.00 0.00 0.00 79 1014.4
20260505174422 23 180 1.6 1.6 0.00 0.00 0.00 76 1014.4
20260505173918 23 136 0.0 0.0 0.00 0.00 0.00 77 1014.2
20260505173414 23 102 0.0 0.0 0.00 0.00 0.00 76 1013.9
20260505172911 23 156 0.0 0.0 0.00 0.00 0.00 76 1014.0
20260505172409 23 335 3.2 4.8 0.00 0.00 0.00 75 1014.1
20260505171908 23 159 1.6 1.6 0.00 0.00 0.00 76 1014.0
20260505171406 23 120 0.0 1.6 0.00 0.00 0.00 75 1013.8
20260505170902 23 145 0.0 0.0 0.00 0.00 0.00 74 1014.0
20260505170359 23 292 1.6 1.6 0.00 0.00 0.00 73 1013.8
20260505165854 23 121 0.0 0.0 0.00 0.00 0.00 73 1014.1
20260505165350 23 102 0.0 0.0 0.00 0.00 0.00 73 1013.9
20260505164846 23 146 0.0 0.0 0.00 0.00 0.00 72 1014.1
20260505164343 23 97 0.0 0.0 0.00 0.00 0.00 70 1014.2
20260505163841 24 149 0.0 0.0 0.00 0.00 0.00 69 1014.1
20260505163340 23 140 1.6 1.6 0.00 0.00 0.00 72 1014.0
20260505162838 22 114 0.0 1.6 0.00 0.00 0.00 73 1013.5
20260505162334 22 195 3.2 3.2 0.00 0.00 0.00 76 1014.5
20260505161831 22 114 0.0 1.6 0.00 0.00 0.00 75 1015.0
20260505161328 22 116 0.0 0.0 0.00 0.00 0.00 75 1014.9
20260505160825 21 125 0.0 0.0 0.00 0.00 0.00 76 1015.1
20260505160323 22 300 3.2 3.2 0.00 0.00 0.00 75 1015.0
20260505153302 21 107 0.0 1.6 0.00 0.00 0.00 75 1015.4
20260505152800 21 153 1.6 1.6 0.00 0.00 0.00 75 1015.1
20260505152256 21 135 0.0 0.0 0.00 0.00 0.00 75 1015.3
20260505151755 21 126 1.6 1.6 0.00 0.00 0.00 76 1015.3
20260505151253 21 97 4.8 4.8 0.00 0.00 0.00 75 1015.4
20260505150750 21 113 0.0 1.6 0.00 0.00 0.00 74 1015.4
20260505150247 21 353 0.0 1.6 0.00 0.00 0.00 74 1015.2
20260505140217 19 83 1.6 3.2 0.00 0.00 0.00 79 1015.2
20260505130141 17 62 1.6 1.6 0.00 0.00 0.00 80 1015.4
20260505124631 17 60 3.2 4.8 0.00 0.00 0.00 80 1015.3
20260505124127 17 24 3.2 4.8 0.00 0.00 0.00 81 1015.2
20260505123623 17 34 1.6 1.6 0.00 0.00 0.00 80 1015.3
20260505123120 17 79 1.6 3.2 0.00 0.00 0.00 80 1015.1
20260505122617 17 105 0.0 0.0 0.00 0.00 0.00 80 1015.0
20260505122114 16 116 0.0 0.0 0.00 0.00 0.00 81 1015.0
20260505121610 16 85 0.0 0.0 0.00 0.00 0.00 81 1015.1
20260505121107 16 111 0.0 0.0 0.00 0.00 0.00 81 1015.0
20260505120604 16 115 0.0 0.0 0.00 0.00 0.00 81 1015.1
20260505120059 16 121 0.0 0.0 0.00 0.00 0.00 81 1015.0
20260505115554 16 148 0.0 0.0 0.00 0.00 0.00 81 1015.0
20260505115052 16 119 0.0 0.0 0.00 0.00 0.00 81 1014.9
20260505114548 16 100 0.0 0.0 0.00 0.00 0.00 80 1015.0
20260505114045 16 44 0.0 1.6 0.00 0.00 0.00 80 1015.0
20260505113541 16 121 0.0 0.0 0.00 0.00 0.00 80 1014.8
20260505113038 16 97 1.6 1.6 0.00 0.00 0.00 80 1014.8
20260505112534 16 121 0.0 0.0 0.00 0.00 0.00 79 1014.7
20260505112032 16 128 0.0 0.0 0.00 0.00 0.00 79 1014.7
20260505111526 16 129 0.0 0.0 0.00 0.00 0.00 79 1014.8
20260505111023 16 135 0.0 0.0 0.00 0.00 0.00 80 1014.6
20260505110519 16 136 0.0 0.0 0.00 0.00 0.00 80 1014.6
20260505101951 16 129 3.2 4.8 0.00 0.00 0.00 79 1014.1
20260505101449 16 85 0.0 1.6 0.00 0.00 0.00 79 1014.3
20260505100946 16 30 1.6 3.2 0.00 0.00 0.00 80 1014.0
20260505100443 16 41 0.0 1.6 0.00 0.00 0.00 79 1014.0
20260505095939 16 48 1.6 1.6 0.00 0.00 0.00 79 1014.0
20260505095436 16 108 0.0 1.6 0.00 0.00 0.00 78 1014.1
20260505094932 16 72 3.2 4.8 0.00 0.00 0.00 79 1014.0
20260505094429 16 103 0.0 1.6 0.00 0.00 0.00 79 1014.0
20260505093925 16 112 0.0 1.6 0.00 0.00 0.00 79 1013.8
20260505093422 16 102 0.0 1.6 0.00 0.00 0.00 79 1013.9
20260505092919 16 110 0.0 1.6 0.00 0.00 0.00 79 1013.9
20260505092417 16 109 0.0 1.6 0.00 0.00 0.00 79 1013.8
20260505091915 16 49 3.2 3.2 0.00 0.00 0.00 78 1013.5
20260505091412 16 63 1.6 1.6 0.00 0.00 0.00 78 1013.6
20260505090910 15 128 1.6 3.2 0.00 0.00 0.00 80 1013.3
20260505090408 15 98 0.0 1.6 0.00 0.00 0.00 80 1013.3
20260505085905 15 102 3.2 3.2 0.00 0.00 0.00 81 1013.4
20260505085403 15 55 0.0 1.6 0.00 0.00 0.00 81 1013.3
20260505084901 15 127 0.0 1.6 0.00 0.00 0.00 82 1013.1
20260505084359 14 122 1.6 3.2 0.00 0.00 0.00 82 1013.2
20260505083856 14 74 0.0 1.6 0.00 0.00 0.00 83 1013.2
20260505083354 14 83 0.0 1.6 0.00 0.00 0.00 83 1013.2
20260505082849 14 81 1.6 1.6 0.00 0.00 0.00 83 1013.1
20260505082346 14 99 0.0 0.0 0.00 0.00 0.00 83 1013.0
20260505081842 14 60 0.0 1.6 0.00 0.00 0.00 83 1013.1
20260505081339 14 117 0.0 0.0 0.00 0.00 0.00 83 1012.9
20260505080836 13 109 0.0 0.0 0.00 0.00 0.00 85 1013.1
20260505080332 13 127 0.0 0.0 0.00 0.00 0.00 86 1013.0
20260505075827 13 127 0.0 0.0 0.00 0.00 0.00 86 1012.8
20260505075325 13 127 0.0 0.0 0.00 0.00 0.00 85 1012.8
20260505074822 13 127 0.0 0.0 0.00 0.00 0.00 85 1012.8
20260505074319 13 137 0.0 0.0 0.00 0.00 0.00 86 1012.8
20260505073816 13 150 0.0 0.0 0.00 0.00 0.00 86 1012.7
20260505073314 13 153 0.0 0.0 0.00 0.00 0.00 87 1013.0
20260505072811 13 131 0.0 0.0 0.00 0.00 0.00 88 1012.9
20260505072307 13 134 0.0 0.0 0.00 0.00 0.00 88 1012.8
20260505071803 13 134 0.0 0.0 0.00 0.00 0.00 88 1012.8
20260505071300 13 134 0.0 0.0 0.00 0.00 0.00 88 1012.8
20260505070758 13 134 0.0 0.0 0.00 0.00 0.00 87 1012.9
20260505070254 13 133 0.0 0.0 0.00 0.00 0.00 87 1012.8
20260505065749 13 133 0.0 0.0 0.00 0.00 0.00 86 1012.6
20260505065246 13 136 0.0 0.0 0.00 0.00 0.00 86 1012.9
20260505064743 13 136 0.0 0.0 0.00 0.00 0.00 86 1012.9
20260505064241 13 137 0.0 0.0 0.00 0.00 0.00 85 1012.9
20260505063738 13 131 0.0 0.0 0.00 0.00 0.00 85 1013.0
20260505063234 13 128 0.0 0.0 0.00 0.00 0.00 85 1012.8
20260505062731 13 121 0.0 0.0 0.00 0.00 0.00 85 1013.1
20260505062229 13 134 0.0 0.0 0.00 0.00 0.00 86 1013.1
20260505061725 13 134 0.0 0.0 0.00 0.00 0.00 85 1013.0
20260505061223 13 134 0.0 0.0 0.00 0.00 0.00 85 1013.2
20260505060720 14 133 0.0 0.0 0.00 0.00 0.00 84 1013.3
20260505060217 14 133 0.0 0.0 0.00 0.00 0.00 83 1013.0
20260505055713 15 124 0.0 0.0 0.00 0.00 0.00 82 1013.3
20260505055209 15 123 0.0 0.0 0.00 0.00 0.00 81 1013.3
20260505054707 15 131 0.0 0.0 0.00 0.00 0.00 80 1013.4
20260505054204 15 133 0.0 0.0 0.00 0.00 0.00 79 1013.3
20260505053702 15 127 0.0 0.0 0.00 0.00 0.00 79 1013.4
20260505053158 15 138 0.0 0.0 0.00 0.00 0.00 79 1013.6
20260505052655 15 123 0.0 0.0 0.00 0.00 0.00 78 1013.3
20260505052153 15 139 0.0 0.0 0.00 0.00 0.00 78 1013.1
20260505051650 15 128 0.0 0.0 0.00 0.00 0.00 78 1013.3
20260505051148 15 130 0.0 0.0 0.00 0.00 0.00 78 1013.3
20260505050645 15 138 0.0 0.0 0.00 0.00 0.00 78 1013.1
20260505050143 15 92 0.0 0.0 0.00 0.00 0.00 78 1013.3
20260505041613 15 90 0.0 1.6 0.00 0.00 0.00 78 1012.6
20260505041110 15 64 0.0 1.6 0.00 0.00 0.00 78 1012.5
20260505040607 16 92 0.0 1.6 0.00 0.00 0.00 77 1012.5
20260505040104 16 92 1.6 3.2 0.00 0.00 0.00 77 1012.7
20260505035601 15 122 0.0 0.0 0.00 0.00 0.00 78 1012.8
20260505035057 15 123 0.0 0.0 0.00 0.00 0.00 78 1012.6
20260505034554 15 120 0.0 0.0 0.00 0.00 0.00 78 1012.9
20260505034050 15 121 0.0 0.0 0.00 0.00 0.00 78 1013.0
20260505033547 15 112 1.6 1.6 0.00 0.00 0.00 79 1013.1
20260505033046 15 107 0.0 0.0 0.00 0.00 0.00 79 1012.9
20260505032544 15 116 0.0 0.0 0.00 0.00 0.00 79 1013.1
20260505032039 15 105 0.0 0.0 0.00 0.00 0.00 80 1013.1
20260505031537 15 120 0.0 0.0 0.00 0.00 0.00 80 1013.0
20260505031033 15 97 0.0 1.6 0.00 0.00 0.00 80 1013.0
20260505030530 15 68 0.0 1.6 0.00 0.00 0.00 80 1013.1
20260505030026 15 95 0.0 0.0 0.00 0.00 0.00 79 1012.9
20260505025522 15 139 0.0 1.6 0.00 0.00 0.00 79 1012.8
20260505025022 15 117 0.0 0.0 0.00 0.00 0.00 79 1012.7
20260505024518 15 94 0.0 1.6 0.00 0.00 0.00 79 1012.8
20260505024015 15 82 1.6 1.6 0.00 0.00 0.00 79 1012.7
20260505023512 15 112 1.6 1.6 0.00 0.00 0.00 80 1012.6
20260505023010 15 133 0.0 0.0 0.00 0.00 0.00 80 1012.5
20260505022507 15 103 0.0 0.0 0.00 0.00 0.00 80 1012.8
20260505022004 15 122 0.0 0.0 0.00 0.00 0.00 81 1012.9
20260505021500 15 125 0.0 0.0 0.00 0.00 0.00 80 1012.7
20260505020956 15 86 0.0 0.0 0.00 0.00 0.00 80 1012.8
20260505020451 15 129 0.0 0.0 0.00 0.00 0.00 80 1012.6